Location: Unspecified
(51.0950°N, 12.9690°E)
Time: 21:44:11
(UTC+00:00)

Cosmos 1844 Rocket - Pass Details

Date: 28 October 2021
Orbit: 826 x 843 km, 71.0° (Epoch: 01 December)

Event Time Altitude Azimuth Distance (km) Brightness Sun altitude
Rises 16:10:41 0° 331° (NNW) 3,378 6.0 -4.0°
Reaches altitude 10° 16:13:13 10° 337° (NNW) 2,440 5.2 -4.4°
Maximum altitude 16:18:39 50° 53° (NE) 1,043 2.9 -5.2°
Drops below altitude 10° 16:24:03 10° 129° (SE) 2,428 4.7 -6.1°
Sets 16:26:33 0° 134° (SE) 3,359 5.5 -6.4°
